Starlink 31108

operational
NORAD ID: 58738 Int'l Des: 2024-005 Owner: SPXS Country: US Constellation: starlink
LEOCIRCULAR

Starlink 31108について

説明を読み込み中...

リアルタイム位置

3D地球を読み込み中...

次回通過

高度履歴

Altitude vs Time

uPlot chart will show altitude changes over time

軌道要素

1 58738U 24005L 26035.28444781 .00000300 00000-0 37302-4 0 9998
2 58738 43.0051 43.3865 0001350 270.3027 89.7660 15.02532766115386
Epoch: Feb 4, 2026 • Age: 7 hours

現在のステータス

高度 563.9 km
速度 7.58 km/s
衛星直下点 -22.60°S, 99.03°W
打ち上げ日 Jan 7, 2024
運用期間 2 years
タイプ internet

技術仕様

分類 Payload
質量 730.00 kg
乾燥質量 700.00 kg
総質量 730.00 kg
長さ 0.30 m
直径 4.10 m
スパン 29.00 m
形状 Box + pan
製造者 SPXS
バスタイプ Starlink V2M
フェーズステータス In Orbit
所有者/国 SPXS/US

大規模コンステレーション

Loading constellations...